Regional Weather Roundup
Issued by NWS

Home | Current Version | Previous Version | Text Only | Print | Product List | Glossary On
Versions: 1 2 3 4 5 6 7 8 9 10 11 12 13 14 15 16 17 18 19 20 21 22 23 24 25 26 27 28 29 30 31 32 33 34 35 36 37 38 39 40 41 42 43 44 45 46 47 48 49 50
000
ASUS43 KLMK 282010
RWRKY
KENTUCKY REGIONAL WEATHER ROUNDUP
NATIONAL WEATHER SERVICE LOUISVILLE KY
400 PM EDT SAT MAY 28 2016

NOTE "FAIR" INDICATES FEW OR NO CLOUDS BELOW 12,000 FEET
WITH NO SIGNIFICANT WEATHER AND/OR OBSTRUCTIONS TO VISIBILITY.

KYZ001>023-026-027-061>063-070>075-282100-
WESTERN AND SOUTH CENTRAL KENTUCKY

CITY           SKY/WX    TMP DP  RH WIND       PRES   REMARKS
PADUCAH        CLOUDY    82  67  60 SW7       30.01R
HENDERSON      CLOUDY    82  64  54 S16G22    30.01S
OWENSBORO      LGT RAIN  80  67  64 S15       30.04S
HOPKINSVILLE   CLOUDY    82  65  57 S10       30.04F
BOWLING GREEN  MOSUNNY   78  68  71 SE12      30.09S
GLASGOW        CLOUDY    75  64  69 SW3       30.11S
$$

KYZ024-025-028>034-038-045-046-053-282100-
NORTH CENTRAL KENTUCKY

CITY           SKY/WX    TMP DP  RH WIND       PRES   REMARKS
LOUISVILLE/SDF CLOUDY    82  65  56 S13       30.06R
LOUISVILLE/LOU CLOUDY    81  67  62 S6        30.07R
FORT KNOX      CLOUDY    79  67  66 S9        30.06S
$$

KYZ035>037-039>044-047>052-055>060-089>105-282100-
NORTHEAST KENTUCKY

CITY           SKY/WX    TMP DP  RH WIND       PRES   REMARKS
LEXINGTON      SUNNY     84  59  42 SW12      30.10F
COVINGTON      PTSUNNY   83  65  54 S14       30.08
FRANKFORT      MOSUNNY   84  60  44 SW10G18   30.08S
$$

KYZ054-064>069-076>088-106>120-282100-
SOUTHEAST KENTUCKY

CITY           SKY/WX    TMP DP  RH WIND       PRES   REMARKS
JACKSON        MOSUNNY   83  64  52 CALM      30.13F
LONDON         MOSUNNY   82  60  47 SW7       30.12F
SOMERSET       MOSUNNY   81  61  50 W9        30.12S
MIDDLESBORO    SUNNY     83  60  45 SW3       30.13S
MONTICELLO     MOCLDY    84  67  56 NW9G17    30.12F
$$





USA.gov is the U.S. government's official web portal to all federal, state and local government web resources and services.